Weather History for Saguache, CO

Change the Weather History Date:

Tuesday, April 30, 2013

  Actual Average (KALS) Record (KALS)
Temperature  
Mean Temperature - 46 °F  
Max Temperature - 64 °F 79 °F (1981)
Min Temperature - 29 °F 10 °F (1975)
Degree Days  
Heating Degree Days 19  
Month to date heating degree days 695  
Since 1 July heating degree days 8000  
Cooling Degree Days 0  
Month to date cooling degree days 0  
Year to date cooling degree days 0  
Moisture  
Dew Point -    
Average Humidity    
Maximum Humidity    
Minimum Humidity    
Precipitation  
Precipitation 0.00 in 0.02 in 1.04 in (1990)
Month to date precipitation 0.59  
Year to date precipitation 1.64  
Snow  
Snow 0.00 in 0.10 in 9.00 in (1990)
Month to date snowfall 3.6  
Since 1 July snowfall 26.7  
Snow Depth -    
Sea Level Pressure  
Sea Level Pressure 29.88 in    
Wind  
Wind Speed 9 mph (WNW)    
Max Wind Speed 29 mph    
Max Gust Speed 36 mph    
Visibility 10 miles    
Events      
T = Trace of Precipitation, MM = Missing Value Source: NWS Daily Summary

Daily Weather History Graph

Daily Weather History Graph

Search for Another Location

Airport:

Trip Planner

Search our weather history database for the weather conditions in past years. The results will help you decide how hot, cold, wet, or windy it might be!

Date:

Astronomy

Apr. 30, 2013 Rise Set
Actual Time 6:09 AM MDT 7:55 PM MDT
Civil Twilight 5:40 AM MDT 8:23 PM MDT
Nautical Twilight 5:06 AM MDT 8:57 PM MDT
Astronomical Twilight 4:30 AM MDT 9:34 PM MDT
Moon 12:19 AM MDT (4/30) 10:42 AM MDT (4/30)
Length of Visible Light 14h 42m
Length of Day
13h 45m
Waning Gibbous, 69% of the Moon is Illuminated
Apr 30
Waning Gibbous
May 2
Last Quarter
May 9
New
May 17
First Quarter
May 24
Full

Hourly Weather History & Observations

Time (MDT) Temp. Dew Point Humidity Pressure Visibility Wind Dir Wind Speed Gust Speed Precip Events Conditions
12:16 AM - - N/A% 29.92 in 10.0 mi North 8.1 mph - N/A   Clear
12:36 AM - - N/A% 29.92 in 10.0 mi North 9.2 mph - N/A   Clear
12:55 AM - - N/A% 29.92 in 10.0 mi North 11.5 mph - N/A   Clear
1:16 AM - - N/A% 29.92 in 10.0 mi NNW 6.9 mph - N/A   Clear
1:36 AM - - N/A% 29.92 in 10.0 mi North 6.9 mph - N/A   Clear
1:56 AM - - N/A% 29.91 in 10.0 mi NNW 8.1 mph - N/A   Clear
2:16 AM - - N/A% 29.91 in 10.0 mi NNW 8.1 mph - N/A   Clear
2:36 AM - - N/A% 29.90 in 10.0 mi NW 10.4 mph - N/A   Clear
2:56 AM - - N/A% 29.90 in 10.0 mi NNW 5.8 mph - N/A   Clear
3:16 AM - - N/A% 29.90 in 10.0 mi NNW 10.4 mph - N/A   Clear
3:36 AM - - N/A% 29.90 in 10.0 mi NNW 4.6 mph - N/A   Clear
3:56 AM - - N/A% 29.90 in 10.0 mi Calm Calm - N/A   Clear
4:16 AM - - N/A% 29.90 in 10.0 mi NW 5.8 mph - N/A   Clear
4:36 AM - - N/A% 29.90 in 10.0 mi NNW 4.6 mph - N/A   Clear
4:56 AM - - N/A% 29.90 in 10.0 mi NNW 5.8 mph - N/A   Clear
5:16 AM - - N/A% 29.90 in 10.0 mi Calm Calm - N/A   Clear
5:36 AM - - N/A% 29.90 in 10.0 mi NW 5.8 mph - N/A   Clear
5:56 AM - - N/A% 29.90 in 10.0 mi Calm Calm - N/A   Clear
6:16 AM - - N/A% 29.92 in 10.0 mi Calm Calm - N/A   Clear
6:36 AM - - N/A% 29.92 in 10.0 mi Calm Calm - N/A   Clear
6:56 AM - - N/A% 29.93 in 10.0 mi NNW 3.5 mph - N/A   Clear
7:16 AM - - N/A% 29.93 in 10.0 mi North 6.9 mph - N/A   Clear
7:36 AM - - N/A% 29.93 in 10.0 mi WNW 4.6 mph - N/A   Clear
7:56 AM - - N/A% 29.93 in 10.0 mi NW 3.5 mph - N/A   Clear
8:16 AM - - N/A% 29.93 in 10.0 mi Calm Calm - N/A   Clear
8:35 AM - - N/A% 29.95 in 10.0 mi SSE 4.6 mph - N/A   Clear
8:56 AM - - N/A% 29.94 in 10.0 mi SE 5.8 mph - N/A   Clear
9:16 AM - - N/A% 29.94 in 10.0 mi SSE 5.8 mph - N/A   Clear
9:36 AM - - N/A% 29.93 in 10.0 mi SSE 9.2 mph - N/A   Clear
9:56 AM - - N/A% 29.93 in 10.0 mi SE 10.4 mph - N/A   Clear
10:16 AM - - N/A% 29.92 in 10.0 mi SE 10.4 mph - N/A   Clear
10:35 AM - - N/A% 29.92 in 10.0 mi South 8.1 mph - N/A   Clear
10:56 AM - - N/A% 29.92 in 10.0 mi South 6.9 mph - N/A   Scattered Clouds
11:16 AM - - N/A% 29.90 in 10.0 mi South 6.9 mph 16.1 mph N/A   Mostly Cloudy
11:36 AM - - N/A% 29.88 in 10.0 mi SSE 9.2 mph 19.6 mph N/A   Scattered Clouds
11:56 AM - - N/A% 29.88 in 10.0 mi South 5.8 mph - N/A   Scattered Clouds
12:16 PM - - N/A% 29.87 in 10.0 mi Calm Calm - N/A   Mostly Cloudy
12:36 PM - - N/A% 29.86 in 10.0 mi WNW 21.9 mph 28.8 mph N/A   Scattered Clouds
12:56 PM - - N/A% 29.85 in 10.0 mi WNW 28.8 mph 33.4 mph N/A   Scattered Clouds
1:16 PM - - N/A% 29.84 in 10.0 mi West 25.3 mph 33.4 mph N/A   Clear
1:31 PM - - N/A% 29.84 in 10.0 mi West 17.3 mph 35.7 mph N/A   Scattered Clouds
1:55 PM - - N/A% 29.84 in 10.0 mi West 18.4 mph 34.5 mph N/A   Scattered Clouds
2:16 PM - - N/A% 29.84 in 10.0 mi West 21.9 mph 29.9 mph N/A   Scattered Clouds
2:36 PM - - N/A% 29.85 in 10.0 mi West 21.9 mph 27.6 mph N/A   Scattered Clouds
2:56 PM - - N/A% 29.85 in 10.0 mi West 24.2 mph 28.8 mph N/A   Clear
3:16 PM - - N/A% 29.85 in 10.0 mi West 13.8 mph 27.6 mph N/A   Clear
3:35 PM - - N/A% 29.83 in 10.0 mi WSW 17.3 mph 28.8 mph N/A   Scattered Clouds
3:56 PM - - N/A% 29.83 in 10.0 mi West 21.9 mph 31.1 mph N/A   Scattered Clouds
4:16 PM - - N/A% 29.83 in 10.0 mi West 12.7 mph 27.6 mph N/A   Scattered Clouds
4:35 PM - - N/A% 29.83 in 10.0 mi West 11.5 mph 26.5 mph N/A   Scattered Clouds
4:56 PM - - N/A% 29.83 in 10.0 mi West 19.6 mph 24.2 mph N/A   Scattered Clouds
5:16 PM - - N/A% 29.83 in 10.0 mi West 21.9 mph 29.9 mph N/A   Scattered Clouds
5:36 PM - - N/A% 29.84 in 10.0 mi West 15.0 mph 18.4 mph N/A   Clear
5:56 PM - - N/A% 29.84 in 10.0 mi West 19.6 mph 24.2 mph N/A   Clear
6:16 PM - - N/A% 29.83 in 10.0 mi West 10.4 mph 23.0 mph N/A   Clear
6:36 PM - - N/A% 29.83 in 10.0 mi West 12.7 mph 18.4 mph N/A   Clear
6:56 PM - - N/A% 29.83 in 10.0 mi West 10.4 mph 17.3 mph N/A   Clear
7:15 PM - - N/A% 29.84 in 10.0 mi WNW 16.1 mph 19.6 mph N/A   Clear
7:35 PM - - N/A% 29.84 in 10.0 mi West 15.0 mph 19.6 mph N/A   Clear
7:56 PM - - N/A% 29.84 in 10.0 mi WSW 8.1 mph - N/A   Clear
8:15 PM - - N/A% 29.85 in 10.0 mi WSW 10.4 mph - N/A   Clear
8:36 PM - - N/A% 29.86 in 10.0 mi NW 6.9 mph - N/A   Clear
8:56 PM - - N/A% 29.86 in 10.0 mi NW 5.8 mph - N/A   Clear
9:15 PM - - N/A% 29.87 in 10.0 mi NW 6.9 mph - N/A   Clear
9:35 PM - - N/A% 29.88 in 10.0 mi NW 5.8 mph - N/A   Clear
10:16 PM - - N/A% 29.88 in 10.0 mi Calm Calm - N/A   Clear
10:35 PM - - N/A% 29.88 in 10.0 mi Calm Calm - N/A   Clear
11:16 PM - - N/A% 29.88 in 10.0 mi North 5.8 mph - N/A   Clear
11:36 PM - - N/A% 29.88 in 10.0 mi North 4.6 mph - N/A   Clear
11:55 PM - - N/A% 29.88 in 10.0 mi NNE 5.8 mph - N/A   Clear